This is the latest recevied weather packets stored in our database for station/object IU1INZ-13. If no packets are shown the sender has not sent any weather packets the latest 10 day(s).
| Time | Temp. | Humidity | Pressure | Rain* | Wind** | Luminosity | Snow |
|---|---|---|---|---|---|---|---|
| 1777463130 | 20° C | 61% | 1017.8 hPa | 0 mm | - | - | - |
| 1777462235 | 19.44° C | 62% | 1017.9 hPa | 0 mm | - | - | - |
| 1777461333 | 18.89° C | 63% | 1018.1 hPa | 0 mm | - | - | - |
| 1777460445 | 18.33° C | 65% | 1018.1 hPa | 0 mm | - | - | - |
| 1777459540 | 18.33° C | 65% | 1018.3 hPa | 0 mm | - | - | - |
| 1777458632 | 17.78° C | 64% | 1018.3 hPa | 0 mm | - | - | - |
| 1777457729 | 17.78° C | 66% | 1018.3 hPa | 0 mm | - | - | - |
| 1777456839 | 17.78° C | 67% | 1018.2 hPa | 0 mm | - | - | - |
| 1777455941 | 17.22° C | 68% | 1018.2 hPa | 0 mm | - | - | - |
| 1777455053 | 17.22° C | 69% | 1018.3 hPa | 0 mm | - | - | - |
| 1777454140 | 17.22° C | 69% | 1018.4 hPa | 0 mm | - | - | - |
| 1777453233 | 17.22° C | 69% | 1018.5 hPa | 0 mm | - | - | - |
| 1777452332 | 17.22° C | 68% | 1018.3 hPa | 0 mm | - | - | - |
| 1777451433 | 17.22° C | 68% | 1018.3 hPa | 0 mm | - | - | - |
| 1777450539 | 17.22° C | 70% | 1018.2 hPa | 0 mm | - | - | - |
| 1777449641 | 16.67° C | 72% | 1018.1 hPa | 0 mm | - | - | - |
| 1777448740 | 16.11° C | 76% | 1018.1 hPa | 0 mm | - | - | - |
| 1777447836 | 15.56° C | 81% | 1018.1 hPa | 0 mm | - | - | - |
| 1777446933 | 15.56° C | 81% | 1018 hPa | 0 mm | - | - | - |
| 1777446040 | 15.56° C | 82% | 1017.9 hPa | 0 mm | - | - | - |
| 1777445139 | 15° C | 85% | 1017.7 hPa | 0 mm | - | - | - |
| 1777444243 | 14.44° C | 85% | 1017.5 hPa | 0 mm | - | - | - |
| 1777443333 | 14.44° C | 87% | 1017.4 hPa | 0 mm | - | - | - |
| 1777442436 | 13.89° C | 88% | 1017.4 hPa | 0 mm | - | - | - |
| 1777441532 | 13.89° C | 88% | 1017.4 hPa | 0 mm | - | - | - |
* Rain latest hour (hover to see other rain measurements)
** Current wind speed in m/s (hover to see current wind gust speed)